Location: Unspecified
(41.1850°N, 73.2650°W)
Time: 06:29:14
(UTC+00:00)

MOS 1 Rocket - Visible Passes

Search period start: 11 March 2026 00:00
Search period end: 21 March 2026 00:00
Orbit: 609 x 813 km, 97.4° (Epoch: 10 March)

Date Brightness Start Highest point End Pass type
(mag) Time Alt. Az. Time Alt. Az. Time Alt. Az.
11 Mar 6.9 23:31:29 10° WSW 23:33:16 12° W 23:35:04 10° WNW visible
12 Mar 6.4 09:51:23 10° NE 09:55:07 20° E 09:58:57 10° SE visible
13 Mar 4.5 10:35:49 10° NNE 10:40:49 54° E 10:46:00 10° S visible
13 Mar 6.6 23:23:38 10° SW 23:26:03 15° W 23:28:33 10° NW visible
14 Mar 6.6 09:44:33 10° NE 09:48:00 18° E 09:51:30 10° SE visible
15 Mar 4.8 10:28:46 10° NNE 10:33:45 47° E 10:38:51 10° S visible
16 Mar 6.6 09:37:47 10° NE 09:40:51 16° E 09:43:58 10° SE visible
17 Mar 5.1 10:21:43 10° NNE 10:26:39 41° E 10:31:40 10° SSE visible
18 Mar 6.7 09:31:07 10° ENE 09:33:42 14° E 09:36:18 10° ESE visible
19 Mar 5.4 10:14:42 10° NNE 10:19:32 36° E 10:24:26 10° SSE visible
20 Mar 6.9 09:24:38 10° ENE 09:26:31 12° E 09:28:25 10° ESE visible
